JUGNU

Last updated on Fri Dec 19 2025 00:03:11 GMT+0000 (Coordinated Universal Time)

1 37839U 11058B 25352.34395981 .00000432 00000+0 86058-4 0 9993 2 37839 19.9624 327.0603 0018421 238.6956 272.3604 14.13698975733403
UTC large
Height (km)
Speed (km/s)
/
Latitude / Longitude
Inclination (degrees)
Orbital Period (minutes)
Azimuth
Elevation
Range (km)
Doppler Factor

Next 0 passes for location: London (51.5072 / 0.1276)

Sorry there are no passes over London.